Time,TemperatureF,DewpointF,PressureIn,WindDirection,WindDirectionDegrees,WindSpeedMPH,WindSpeedGustMPH,Humidity,HourlyPrecipIn,Conditions,Clouds,dailyrainin,SoftwareType,DateUTC
2013-06-21 00:03:00,52.1,51.0,30.23,SE,139,0.0,0.0,96,0.00,OVC,OVC,0.29,WeatherDisplay:10.37,2013-06-21 07:03:00,
2013-06-21 00:08:00,52.1,51.0,30.23,SE,139,0.0,0.0,96,0.00,OVC,OVC,0.29,WeatherDisplay:10.37,2013-06-21 07:08:00,
2013-06-21 00:18:00,52.1,51.0,30.23,SE,139,0.0,0.0,96,0.00,OVC,OVC,0.29,WeatherDisplay:10.37,2013-06-21 07:18:00,
2013-06-21 00:23:00,52.1,51.0,30.23,SE,141,0.0,0.0,96,0.00,OVC,OVC,0.29,WeatherDisplay:10.37,2013-06-21 07:23:00,
2013-06-21 00:28:00,52.1,51.0,30.23,SSE,148,0.0,0.0,96,0.00,OVC,OVC,0.29,WeatherDisplay:10.37,2013-06-21 07:28:00,
2013-06-21 00:33:00,52.1,51.0,30.23,SSE,157,0.0,0.0,96,0.00,OVC,OVC,0.29,WeatherDisplay:10.37,2013-06-21 07:33:00,
2013-06-21 00:38:00,52.1,51.0,30.23,SSE,158,0.0,0.0,96,0.00,OVC,OVC,0.29,WeatherDisplay:10.37,2013-06-21 07:38:00,
2013-06-21 00:43:00,52.1,51.0,30.23,SSE,153,0.0,0.0,96,0.00,OVC,OVC,0.29,WeatherDisplay:10.37,2013-06-21 07:43:00,
2013-06-21 00:48:00,52.1,51.0,30.23,SSE,154,0.0,0.0,96,0.00,OVC,OVC,0.29,WeatherDisplay:10.37,2013-06-21 07:48:00,
2013-06-21 00:53:00,52.1,51.0,30.23,SE,146,0.0,0.0,96,0.00,OVC,OVC,0.29,WeatherDisplay:10.37,2013-06-21 07:53:00,
2013-06-21 00:58:00,52.1,51.0,30.23,SE,135,0.0,0.0,96,0.00,OVC,OVC,0.29,WeatherDisplay:10.37,2013-06-21 07:58:00,
2013-06-21 01:03:00,52.1,51.0,30.23,SE,128,0.0,0.0,96,0.00,OVC,OVC,0.29,WeatherDisplay:10.37,2013-06-21 08:03:00,
2013-06-21 01:08:00,52.1,51.0,30.23,ENE,78,0.0,0.0,96,0.00,OVC,OVC,0.29,WeatherDisplay:10.37,2013-06-21 08:08:00,
2013-06-21 01:13:00,52.1,51.0,30.23,NE,49,0.0,0.0,96,0.00,OVC,OVC,0.29,WeatherDisplay:10.37,2013-06-21 08:13:00,
2013-06-21 01:18:00,52.1,51.0,30.23,NE,49,0.0,0.0,96,0.00,OVC,OVC,0.29,WeatherDisplay:10.37,2013-06-21 08:18:00,
2013-06-21 01:23:00,52.2,51.1,30.23,NE,49,0.0,0.0,96,0.00,OVC,OVC,0.29,WeatherDisplay:10.37,2013-06-21 08:23:00,
2013-06-21 01:28:00,52.2,51.1,30.23,NE,50,0.0,0.0,96,0.00,OVC,OVC,0.29,WeatherDisplay:10.37,2013-06-21 08:28:00,
2013-06-21 01:33:00,52.1,51.0,30.23,ENE,65,0.0,0.0,96,0.00,OVC,OVC,0.29,WeatherDisplay:10.37,2013-06-21 08:33:00,
2013-06-21 01:38:00,52.0,50.9,30.23,SE,135,0.0,0.0,96,0.00,OVC,OVC,0.29,WeatherDisplay:10.37,2013-06-21 08:38:00,
2013-06-21 01:43:00,52.0,50.9,30.23,SSE,158,0.0,0.0,96,0.00,OVC,OVC,0.29,WeatherDisplay:10.37,2013-06-21 08:43:00,
2013-06-21 01:48:00,52.0,50.9,30.23,SSE,155,0.0,0.0,96,0.00,OVC,OVC,0.29,WeatherDisplay:10.37,2013-06-21 08:48:00,
2013-06-21 01:53:00,52.0,50.9,30.23,SSE,151,0.0,0.0,96,0.00,OVC,OVC,0.29,WeatherDisplay:10.37,2013-06-21 08:53:00,
2013-06-21 01:58:00,52.0,50.9,30.24,SSE,148,0.0,0.0,96,0.00,OVC,OVC,0.29,WeatherDisplay:10.37,2013-06-21 08:58:00,
2013-06-21 02:03:00,52.0,50.9,30.23,SSE,148,0.0,0.0,96,0.00,OVC,OVC,0.29,WeatherDisplay:10.37,2013-06-21 09:03:00,
2013-06-21 02:08:00,52.0,50.9,30.23,SSE,148,0.0,0.0,96,0.00,OVC,OVC,0.29,WeatherDisplay:10.37,2013-06-21 09:08:00,
2013-06-21 02:13:00,52.0,50.9,30.23,SSE,148,0.0,0.0,96,0.00,OVC,OVC,0.29,WeatherDisplay:10.37,2013-06-21 09:13:00,
2013-06-21 02:18:00,52.1,51.0,30.23,SSE,148,0.0,0.0,96,0.00,OVC,OVC,0.29,WeatherDisplay:10.37,2013-06-21 09:18:00,
2013-06-21 02:23:00,52.0,50.9,30.23,SSE,148,0.0,0.0,96,0.00,OVC,OVC,0.29,WeatherDisplay:10.37,2013-06-21 09:23:00,
2013-06-21 02:28:00,52.0,50.9,30.24,SE,144,0.0,0.0,96,0.00,OVC,OVC,0.29,WeatherDisplay:10.37,2013-06-21 09:28:00,
2013-06-21 02:33:00,51.9,50.8,30.24,SE,131,0.0,0.0,96,0.00,OVC,OVC,0.29,WeatherDisplay:10.37,2013-06-21 09:33:00,
2013-06-21 02:38:00,51.9,50.8,30.24,SE,130,0.0,0.0,96,0.00,OVC,OVC,0.29,WeatherDisplay:10.37,2013-06-21 09:38:00,
2013-06-21 02:43:00,51.9,50.8,30.24,SE,140,0.0,0.0,96,0.00,OVC,OVC,0.29,WeatherDisplay:10.37,2013-06-21 09:43:00,
2013-06-21 02:48:00,51.8,50.7,30.24,SSE,150,0.0,0.0,96,0.00,OVC,OVC,0.29,WeatherDisplay:10.37,2013-06-21 09:48:00,
2013-06-21 02:53:00,51.8,50.7,30.24,SSE,153,0.0,0.0,96,0.00,OVC,OVC,0.29,WeatherDisplay:10.37,2013-06-21 09:53:00,
2013-06-21 02:58:00,51.8,50.7,30.23,SSE,152,0.0,0.0,96,0.00,OVC,OVC,0.29,WeatherDisplay:10.37,2013-06-21 09:58:00,
2013-06-21 03:03:00,51.8,50.7,30.23,SSE,154,0.0,0.0,96,0.00,OVC,OVC,0.29,WeatherDisplay:10.37,2013-06-21 10:03:00,
2013-06-21 03:08:00,51.8,50.7,30.23,SSE,155,0.0,0.0,96,0.00,OVC,OVC,0.29,WeatherDisplay:10.37,2013-06-21 10:08:00,
2013-06-21 03:13:00,51.8,50.7,30.23,SSE,155,0.0,0.0,96,0.00,OVC,OVC,0.29,WeatherDisplay:10.37,2013-06-21 10:13:00,
2013-06-21 03:18:00,51.9,50.8,30.23,SSE,155,0.0,0.0,96,0.00,OVC,OVC,0.29,WeatherDisplay:10.37,2013-06-21 10:18:00,
2013-06-21 03:23:00,51.9,50.8,30.23,SSE,155,0.0,0.0,96,0.00,OVC,OVC,0.29,WeatherDisplay:10.37,2013-06-21 10:23:00,
2013-06-21 03:28:00,52.0,50.9,30.23,SSE,155,0.0,0.0,96,0.00,OVC,OVC,0.29,WeatherDisplay:10.37,2013-06-21 10:28:00,
2013-06-21 03:33:00,52.0,50.9,30.23,SSE,155,0.0,0.0,96,0.00,OVC,OVC,0.29,WeatherDisplay:10.37,2013-06-21 10:33:00,
2013-06-21 03:38:00,52.0,50.9,30.23,SSE,155,0.0,0.0,96,0.00,OVC,OVC,0.29,WeatherDisplay:10.37,2013-06-21 10:38:00,
2013-06-21 03:43:00,52.0,50.9,30.23,SSE,155,0.0,0.0,96,0.00,OVC,OVC,0.29,WeatherDisplay:10.37,2013-06-21 10:43:00,
2013-06-21 03:48:00,51.9,50.8,30.23,SSE,155,0.0,0.0,96,0.00,OVC,OVC,0.29,WeatherDisplay:10.37,2013-06-21 10:48:00,
2013-06-21 03:53:00,51.9,50.8,30.23,SSE,155,0.0,0.0,96,0.00,OVC,OVC,0.29,WeatherDisplay:10.37,2013-06-21 10:53:00,
2013-06-21 03:58:00,51.9,50.8,30.23,SSE,155,0.0,0.0,96,0.00,OVC,OVC,0.29,WeatherDisplay:10.37,2013-06-21 10:58:00,
2013-06-21 04:03:00,51.8,50.7,30.24,SSE,154,0.0,0.0,96,0.00,OVC,OVC,0.29,WeatherDisplay:10.37,2013-06-21 11:03:00,
2013-06-21 04:08:00,51.8,50.7,30.24,SSE,153,0.0,0.0,96,0.00,OVC,OVC,0.29,WeatherDisplay:10.37,2013-06-21 11:08:00,
2013-06-21 04:13:00,51.8,50.7,30.24,SSE,153,0.0,0.0,96,0.01,RA,RA,0.30,WeatherDisplay:10.37,2013-06-21 11:13:00,
2013-06-21 04:18:00,51.8,50.7,30.24,SSE,153,0.0,0.0,96,0.00,RA,RA,0.30,WeatherDisplay:10.37,2013-06-21 11:18:00,
2013-06-21 04:23:00,51.7,50.6,30.24,SSE,153,0.0,0.0,96,0.00,OVC,OVC,0.30,WeatherDisplay:10.37,2013-06-21 11:23:00,
2013-06-21 04:28:00,51.7,50.6,30.24,SSE,153,0.0,0.0,96,0.00,OVC,OVC,0.30,WeatherDisplay:10.37,2013-06-21 11:28:00,
2013-06-21 04:33:00,51.7,50.6,30.24,SSE,153,0.0,0.0,96,0.00,OVC,OVC,0.30,WeatherDisplay:10.37,2013-06-21 11:33:00,
2013-06-21 04:38:00,51.7,50.6,30.23,SSE,153,0.0,0.0,96,0.00,OVC,OVC,0.30,WeatherDisplay:10.37,2013-06-21 11:38:00,
2013-06-21 04:43:00,51.7,50.6,30.24,SSE,153,0.0,0.0,96,0.00,OVC,OVC,0.30,WeatherDisplay:10.37,2013-06-21 11:43:00,
2013-06-21 04:48:00,51.7,50.6,30.24,SSE,153,0.0,0.0,96,0.00,OVC,OVC,0.30,WeatherDisplay:10.37,2013-06-21 11:48:00,
2013-06-21 04:53:00,51.7,50.6,30.24,SSE,154,0.0,0.0,96,0.00,OVC,OVC,0.30,WeatherDisplay:10.37,2013-06-21 11:53:00,
2013-06-21 04:58:00,51.7,50.6,30.24,SSE,155,0.0,0.0,96,0.00,OVC,OVC,0.30,WeatherDisplay:10.37,2013-06-21 11:58:00,
2013-06-21 05:03:00,51.7,50.6,30.24,SSE,155,0.0,0.0,96,0.00,OVC,OVC,0.30,WeatherDisplay:10.37,2013-06-21 12:03:00,
2013-06-21 05:08:00,51.7,50.6,30.24,SSE,155,0.0,0.0,96,0.00,OVC,OVC,0.30,WeatherDisplay:10.37,2013-06-21 12:08:00,
2013-06-21 05:13:00,51.7,50.6,30.24,SSE,155,0.0,0.0,96,0.01,RA,RA,0.31,WeatherDisplay:10.37,2013-06-21 12:13:00,
2013-06-21 05:18:00,51.7,50.6,30.24,SSE,155,0.0,0.0,96,0.00,RA,RA,0.31,WeatherDisplay:10.37,2013-06-21 12:18:00,
2013-06-21 05:23:00,51.7,50.9,30.24,SSE,155,0.0,0.0,97,0.00,OVC,OVC,0.31,WeatherDisplay:10.37,2013-06-21 12:23:00,
2013-06-21 05:28:00,51.8,51.0,30.24,SSE,155,0.0,0.0,97,0.00,OVC,OVC,0.31,WeatherDisplay:10.37,2013-06-21 12:28:00,
2013-06-21 05:33:00,51.8,51.0,30.25,SSE,155,0.0,0.0,97,0.00,OVC,OVC,0.31,WeatherDisplay:10.37,2013-06-21 12:33:00,
2013-06-21 05:38:00,51.8,51.0,30.24,SSE,155,0.0,0.0,97,0.00,OVC,OVC,0.31,WeatherDisplay:10.37,2013-06-21 12:38:00,
2013-06-21 05:43:00,51.8,51.0,30.25,SSE,155,0.0,0.0,97,0.00,OVC,OVC,0.31,WeatherDisplay:10.37,2013-06-21 12:43:00,
2013-06-21 05:48:00,51.8,51.0,30.24,SSE,155,0.0,0.0,97,0.00,OVC,OVC,0.31,WeatherDisplay:10.37,2013-06-21 12:48:00,
2013-06-21 05:53:00,51.8,51.0,30.25,SSE,161,0.0,0.0,97,0.00,OVC,OVC,0.31,WeatherDisplay:10.37,2013-06-21 12:53:00,
2013-06-21 05:58:00,51.9,51.1,30.25,SSE,165,0.0,0.0,97,0.00,OVC,OVC,0.31,WeatherDisplay:10.37,2013-06-21 12:58:00,
2013-06-21 06:03:00,51.9,51.1,30.25,SE,136,0.0,0.0,97,0.00,OVC,OVC,0.31,WeatherDisplay:10.37,2013-06-21 13:03:00,
2013-06-21 06:08:00,51.9,51.1,30.25,ESE,110,0.0,0.0,97,0.00,OVC,OVC,0.31,WeatherDisplay:10.37,2013-06-21 13:08:00,
2013-06-21 06:13:00,51.9,51.1,30.25,ESE,109,0.0,0.0,97,0.00,OVC,OVC,0.31,WeatherDisplay:10.37,2013-06-21 13:13:00,
2013-06-21 06:18:00,52.0,51.2,30.25,ESE,110,0.0,0.0,97,0.00,OVC,OVC,0.31,WeatherDisplay:10.37,2013-06-21 13:18:00,
2013-06-21 06:23:00,52.0,51.2,30.26,ESE,117,0.0,0.0,97,0.00,OVC,OVC,0.31,WeatherDisplay:10.37,2013-06-21 13:23:00,
2013-06-21 06:28:00,52.0,51.2,30.26,SE,144,0.0,0.0,97,0.00,OVC,OVC,0.31,WeatherDisplay:10.37,2013-06-21 13:28:00,
2013-06-21 06:33:00,52.1,51.2,30.26,SSE,156,0.0,0.0,97,0.00,OVC,OVC,0.31,WeatherDisplay:10.37,2013-06-21 13:33:00,
2013-06-21 06:38:00,52.1,51.3,30.26,SSE,150,0.0,0.0,97,0.00,OVC,OVC,0.31,WeatherDisplay:10.37,2013-06-21 13:38:00,
2013-06-21 06:43:00,52.2,51.4,30.26,SSE,151,0.0,0.0,97,0.00,OVC,OVC,0.31,WeatherDisplay:10.37,2013-06-21 13:43:00,
2013-06-21 06:48:00,52.3,51.5,30.26,SSE,152,0.0,0.0,97,0.00,OVC,OVC,0.31,WeatherDisplay:10.37,2013-06-21 13:48:00,
2013-06-21 06:53:00,52.3,51.5,30.26,SSE,151,0.0,0.0,97,0.00,OVC,OVC,0.31,WeatherDisplay:10.37,2013-06-21 13:53:00,
2013-06-21 06:58:00,52.4,51.6,30.26,SSE,151,0.0,0.0,97,0.00,OVC,OVC,0.31,WeatherDisplay:10.37,2013-06-21 13:58:00,
2013-06-21 07:03:00,52.4,51.6,30.26,SSE,152,0.0,0.0,97,0.00,RA,RA,0.00,WeatherDisplay:10.37,2013-06-21 14:03:00,
2013-06-21 07:08:00,52.5,51.7,30.26,SSE,152,0.0,0.0,97,0.00,RA,RA,0.00,WeatherDisplay:10.37,2013-06-21 14:08:00,
2013-06-21 07:18:00,52.8,52.0,30.26,SSE,161,0.0,0.0,97,0.00,OVC,OVC,0.00,WeatherDisplay:10.37,2013-06-21 14:18:00,
2013-06-21 07:23:00,53.1,52.3,30.26,SSW,201,0.0,0.0,97,0.00,OVC,OVC,0.00,WeatherDisplay:10.37,2013-06-21 14:23:00,
2013-06-21 07:28:00,53.1,52.0,30.26,South,187,0.0,0.0,96,0.00,OVC,OVC,0.00,WeatherDisplay:10.37,2013-06-21 14:28:00,
2013-06-21 07:33:00,53.2,52.1,30.26,SSE,163,0.0,0.0,96,0.00,OVC,OVC,0.00,WeatherDisplay:10.37,2013-06-21 14:33:00,
2013-06-21 07:38:00,53.3,52.2,30.27,SSE,164,0.0,0.0,96,0.01,RA,RA,0.01,WeatherDisplay:10.37,2013-06-21 14:38:00,
2013-06-21 07:43:00,53.2,52.1,30.27,SSE,162,0.0,0.0,96,0.00,RA,RA,0.01,WeatherDisplay:10.37,2013-06-21 14:43:00,
2013-06-21 07:48:00,53.1,52.0,30.27,SSW,201,0.0,0.0,96,0.00,OVC,OVC,0.01,WeatherDisplay:10.37,2013-06-21 14:48:00,
2013-06-21 07:53:00,53.1,52.0,30.27,West,264,0.0,0.0,96,0.00,OVC,OVC,0.01,WeatherDisplay:10.37,2013-06-21 14:53:00,
2013-06-21 07:58:00,53.3,52.2,30.27,West,264,0.0,0.0,96,0.00,OVC,OVC,0.01,WeatherDisplay:10.37,2013-06-21 14:58:00,
2013-06-21 08:03:00,53.5,52.4,30.27,West,264,0.0,0.0,96,0.00,OVC,OVC,0.01,WeatherDisplay:10.37,2013-06-21 15:03:00,
2013-06-21 08:08:00,53.5,52.4,30.28,West,264,0.0,0.0,96,0.00,OVC,OVC,0.01,WeatherDisplay:10.37,2013-06-21 15:08:00,
2013-06-21 08:18:00,53.8,52.7,30.28,NW,314,0.0,0.0,96,0.00,OVC,OVC,0.01,WeatherDisplay:10.37,2013-06-21 15:18:00,
2013-06-21 08:28:00,54.2,52.8,30.28,SSE,162,0.0,0.0,95,0.00,OVC,OVC,0.01,WeatherDisplay:10.37,2013-06-21 15:28:00,
2013-06-21 08:33:00,54.3,52.6,30.28,SSW,208,0.0,1.0,94,0.00,OVC,OVC,0.01,WeatherDisplay:10.37,2013-06-21 15:33:00,
2013-06-21 08:38:00,54.3,52.6,30.28,WSW,247,0.0,1.0,94,0.00,OVC,OVC,0.01,WeatherDisplay:10.37,2013-06-21 15:38:00,
2013-06-21 08:43:00,54.4,52.7,30.28,South,190,0.0,2.0,94,0.00,OVC,OVC,0.01,WeatherDisplay:10.37,2013-06-21 15:43:00,
2013-06-21 08:48:00,54.5,52.5,30.28,SE,135,0.0,1.0,93,0.00,OVC,OVC,0.01,WeatherDisplay:10.37,2013-06-21 15:48:00,
2013-06-21 08:53:00,54.7,53.0,30.28,WSW,242,0.0,1.0,94,0.00,OVC,OVC,0.01,WeatherDisplay:10.37,2013-06-21 15:53:00,
2013-06-21 08:58:00,54.8,53.1,30.28,WSW,237,0.0,0.0,94,0.00,OVC,OVC,0.01,WeatherDisplay:10.37,2013-06-21 15:58:00,
2013-06-21 09:03:00,54.6,52.6,30.28,WSW,239,1.0,1.0,93,0.00,OVC,OVC,0.01,WeatherDisplay:10.37,2013-06-21 16:03:00,
2013-06-21 09:13:00,54.8,53.1,30.28,WSW,248,0.0,0.0,94,0.00,OVC,OVC,0.01,WeatherDisplay:10.37,2013-06-21 16:13:00,
2013-06-21 09:18:00,55.0,53.3,30.28,WSW,247,0.0,0.0,94,0.00,OVC,OVC,0.01,WeatherDisplay:10.37,2013-06-21 16:18:00,
2013-06-21 09:23:00,55.3,53.3,30.28,SW,220,0.0,0.0,93,0.00,OVC,OVC,0.01,WeatherDisplay:10.37,2013-06-21 16:23:00,
2013-06-21 09:28:00,55.5,53.2,30.28,SSE,160,0.0,0.0,92,0.00,OVC,OVC,0.01,WeatherDisplay:10.37,2013-06-21 16:28:00,
2013-06-21 09:33:00,55.7,54.0,30.28,East,92,0.0,0.0,94,0.00,OVC,OVC,0.01,WeatherDisplay:10.37,2013-06-21 16:33:00,
2013-06-21 09:43:00,56.2,53.3,30.28,NW,318,1.0,2.0,90,0.00,OVC,OVC,0.01,WeatherDisplay:10.37,2013-06-21 16:43:00,
2013-06-21 09:48:00,56.3,52.8,30.28,NW,324,0.0,1.0,88,0.00,OVC,OVC,0.01,WeatherDisplay:10.37,2013-06-21 16:48:00,
2013-06-21 09:53:00,56.6,53.4,30.28,NW,305,0.0,0.0,89,0.00,OVC,OVC,0.01,WeatherDisplay:10.37,2013-06-21 16:53:00,
2013-06-21 09:58:00,57.0,53.8,30.28,West,281,0.0,0.0,89,0.00,OVC,OVC,0.01,WeatherDisplay:10.37,2013-06-21 16:58:00,
2013-06-21 10:08:00,57.5,53.0,30.28,SW,215,0.0,0.0,85,0.00,OVC,OVC,0.01,WeatherDisplay:10.37,2013-06-21 17:08:00,
2013-06-21 10:13:00,57.6,53.1,30.28,WSW,255,0.0,0.0,85,0.00,OVC,OVC,0.01,WeatherDisplay:10.37,2013-06-21 17:13:00,
2013-06-21 10:18:00,57.8,53.6,30.27,SW,214,0.0,0.0,86,0.00,OVC,OVC,0.01,WeatherDisplay:10.37,2013-06-21 17:18:00,
2013-06-21 10:23:00,58.2,54.3,30.28,SE,136,0.0,0.0,87,0.00,OVC,OVC,0.01,WeatherDisplay:10.37,2013-06-21 17:23:00,
2013-06-21 10:28:00,58.9,54.0,30.28,SSE,158,1.0,2.0,84,0.00,OVC,OVC,0.01,WeatherDisplay:10.37,2013-06-21 17:28:00,
2013-06-21 10:33:00,59.2,54.4,30.28,South,174,0.0,1.0,84,0.00,OVC,OVC,0.01,WeatherDisplay:10.37,2013-06-21 17:33:00,
2013-06-21 10:38:00,59.4,53.2,30.28,WSW,256,1.0,3.0,80,0.00,OVC,OVC,0.01,WeatherDisplay:10.37,2013-06-21 17:38:00,
2013-06-21 10:48:00,59.3,53.8,30.28,SW,233,0.0,2.0,82,0.00,OVC,OVC,0.01,WeatherDisplay:10.37,2013-06-21 17:48:00,
2013-06-21 10:53:00,60.0,54.9,30.28,WNW,299,1.0,2.0,83,0.00,OVC,OVC,0.01,WeatherDisplay:10.37,2013-06-21 17:53:00,
2013-06-21 10:58:00,60.2,54.0,30.28,North,355,1.0,3.0,80,0.00,OVC,OVC,0.01,WeatherDisplay:10.37,2013-06-21 17:58:00,
2013-06-21 11:03:00,60.3,53.8,30.28,SSW,199,1.0,3.0,79,0.00,OVC,OVC,0.01,WeatherDisplay:10.37,2013-06-21 18:03:00,
2013-06-21 11:08:00,60.3,53.8,30.28,SSW,212,1.0,2.0,79,0.00,OVC,OVC,0.01,WeatherDisplay:10.37,2013-06-21 18:08:00,
2013-06-21 11:18:00,61.3,54.3,30.28,SSW,201,1.0,3.0,78,0.00,OVC,OVC,0.01,WeatherDisplay:10.37,2013-06-21 18:18:00,
2013-06-21 11:23:00,61.4,54.5,30.28,SSE,166,1.0,2.0,78,0.00,OVC,OVC,0.01,WeatherDisplay:10.37,2013-06-21 18:23:00,
2013-06-21 11:28:00,61.3,54.7,30.28,SSW,206,1.0,3.0,79,0.00,OVC,OVC,0.01,WeatherDisplay:10.37,2013-06-21 18:28:00,
2013-06-21 11:33:00,60.6,54.8,30.28,West,263,1.0,4.0,81,0.00,OVC,OVC,0.01,WeatherDisplay:10.37,2013-06-21 18:33:00,
2013-06-21 11:38:00,59.9,54.1,30.28,West,274,1.0,3.0,81,0.00,OVC,OVC,0.01,WeatherDisplay:10.37,2013-06-21 18:38:00,
2013-06-21 11:48:00,59.5,54.0,30.28,WSW,248,1.0,2.0,82,0.00,OVC,OVC,0.01,WeatherDisplay:10.37,2013-06-21 18:48:00,
2013-06-21 11:53:00,59.5,54.3,30.28,West,260,1.0,2.0,83,0.00,OVC,OVC,0.01,WeatherDisplay:10.37,2013-06-21 18:53:00,
2013-06-21 11:58:00,59.7,53.5,30.28,West,267,1.0,4.0,80,0.00,OVC,OVC,0.01,WeatherDisplay:10.37,2013-06-21 18:58:00,
2013-06-21 12:03:00,60.4,54.6,30.28,WSW,238,1.0,3.0,81,0.00,OVC,OVC,0.01,WeatherDisplay:10.37,2013-06-21 19:03:00,
2013-06-21 12:08:00,61.1,54.6,30.28,South,182,0.0,5.0,79,0.00,OVC,OVC,0.01,WeatherDisplay:10.37,2013-06-21 19:08:00,
2013-06-21 12:13:00,61.7,54.8,30.28,South,190,1.0,3.0,78,0.00,OVC,OVC,0.01,WeatherDisplay:10.37,2013-06-21 19:13:00,
2013-06-21 12:18:00,62.0,54.7,30.28,WSW,257,1.0,2.0,77,0.00,OVC,OVC,0.01,WeatherDisplay:10.37,2013-06-21 19:18:00,
2013-06-21 12:28:00,62.0,54.0,30.28,West,272,1.0,4.0,75,0.00,OVC,OVC,0.01,WeatherDisplay:10.37,2013-06-21 19:28:00,
2013-06-21 12:33:00,61.8,53.8,30.27,WSW,255,1.0,4.0,75,0.00,OVC,OVC,0.01,WeatherDisplay:10.37,2013-06-21 19:33:00,
2013-06-21 12:38:00,61.5,53.9,30.28,WSW,253,0.0,2.0,76,0.00,OVC,OVC,0.01,WeatherDisplay:10.37,2013-06-21 19:38:00,
2013-06-21 12:43:00,61.6,53.2,30.28,West,265,1.0,2.0,74,0.00,OVC,OVC,0.01,WeatherDisplay:10.37,2013-06-21 19:43:00,
2013-06-21 12:48:00,61.6,54.3,30.28,West,270,0.0,2.0,77,0.00,OVC,OVC,0.01,WeatherDisplay:10.37,2013-06-21 19:48:00,
2013-06-21 12:58:00,62.1,53.3,30.28,NNW,329,1.0,2.0,73,0.00,OVC,OVC,0.01,WeatherDisplay:10.37,2013-06-21 19:58:00,
2013-06-21 13:03:00,62.0,54.3,30.27,WNW,285,1.0,2.0,76,0.00,OVC,OVC,0.01,WeatherDisplay:10.37,2013-06-21 20:03:00,
2013-06-21 13:08:00,62.0,53.2,30.27,West,272,1.0,4.0,73,0.00,OVC,OVC,0.01,WeatherDisplay:10.37,2013-06-21 20:08:00,
2013-06-21 13:13:00,62.0,54.4,30.28,WNW,288,0.0,2.0,76,0.00,OVC,OVC,0.01,WeatherDisplay:10.37,2013-06-21 20:13:00,
2013-06-21 13:18:00,62.3,54.3,30.27,West,268,0.0,2.0,75,0.00,OVC,OVC,0.01,WeatherDisplay:10.37,2013-06-21 20:18:00,
2013-06-21 13:23:00,62.7,54.3,30.27,WSW,245,1.0,3.0,74,0.00,OVC,OVC,0.01,WeatherDisplay:10.37,2013-06-21 20:23:00,
2013-06-21 13:28:00,62.8,53.3,30.27,West,281,1.0,3.0,71,0.00,OVC,OVC,0.01,WeatherDisplay:10.37,2013-06-21 20:28:00,
2013-06-21 13:33:00,63.1,53.2,30.27,NW,307,1.0,2.0,70,0.00,OVC,OVC,0.01,WeatherDisplay:10.37,2013-06-21 20:33:00,
2013-06-21 13:38:00,63.5,54.3,30.27,WNW,283,0.0,1.0,72,0.00,OVC,OVC,0.01,WeatherDisplay:10.37,2013-06-21 20:38:00,
2013-06-21 13:43:00,64.1,54.8,30.27,WSW,258,0.0,1.0,72,0.00,OVC,OVC,0.01,WeatherDisplay:10.37,2013-06-21 20:43:00,
2013-06-21 13:48:00,64.3,54.7,30.27,South,176,1.0,2.0,71,0.00,OVC,OVC,0.01,WeatherDisplay:10.37,2013-06-21 20:48:00,
2013-06-21 13:58:00,64.6,52.1,30.27,West,272,0.0,2.0,64,0.00,OVC,OVC,0.01,WeatherDisplay:10.37,2013-06-21 20:58:00,
2013-06-21 14:03:00,64.7,52.7,30.27,NW,307,1.0,2.0,65,0.00,OVC,OVC,0.01,WeatherDisplay:10.37,2013-06-21 21:03:00,
2013-06-21 14:08:00,65.0,53.4,30.26,North,358,1.0,2.0,66,0.00,OVC,OVC,0.01,WeatherDisplay:10.37,2013-06-21 21:08:00,
2013-06-21 14:13:00,65.9,55.0,30.26,NNE,16,0.0,1.0,68,0.00,OVC,OVC,0.01,WeatherDisplay:10.37,2013-06-21 21:13:00,
2013-06-21 14:23:00,65.8,54.1,30.26,WSW,247,0.0,2.0,66,0.00,OVC,OVC,0.01,WeatherDisplay:10.37,2013-06-21 21:23:00,
2013-06-21 14:28:00,66.0,53.9,30.26,South,179,1.0,3.0,65,0.00,OVC,OVC,0.01,WeatherDisplay:10.37,2013-06-21 21:28:00,
2013-06-21 14:33:00,66.2,53.7,30.26,ESE,123,1.0,4.0,64,0.00,OVC,OVC,0.01,WeatherDisplay:10.37,2013-06-21 21:33:00,
2013-06-21 14:38:00,66.7,53.7,30.26,ESE,113,1.0,2.0,63,0.00,OVC,OVC,0.01,WeatherDisplay:10.37,2013-06-21 21:38:00,
2013-06-21 14:43:00,66.9,53.0,30.26,SE,136,1.0,3.0,61,0.00,OVC,OVC,0.01,WeatherDisplay:10.37,2013-06-21 21:43:00,
2013-06-21 14:48:00,66.8,52.5,30.26,SSW,208,1.0,4.0,60,0.00,OVC,OVC,0.01,WeatherDisplay:10.37,2013-06-21 21:48:00,
2013-06-21 14:58:00,66.4,51.2,30.26,WSW,251,2.0,3.0,58,0.00,OVC,OVC,0.01,WeatherDisplay:10.37,2013-06-21 21:58:00,
2013-06-21 15:03:00,66.0,50.8,30.26,South,178,1.0,2.0,58,0.00,OVC,OVC,0.01,WeatherDisplay:10.37,2013-06-21 22:03:00,
2013-06-21 15:08:00,65.9,51.2,30.26,ESE,121,1.0,3.0,59,0.00,OVC,OVC,0.01,WeatherDisplay:10.37,2013-06-21 22:08:00,
2013-06-21 15:13:00,66.4,51.6,30.26,SE,132,0.0,1.0,59,0.00,OVC,OVC,0.01,WeatherDisplay:10.37,2013-06-21 22:13:00,
2013-06-21 15:18:00,66.9,53.0,30.26,ESE,106,0.0,2.0,61,0.00,OVC,OVC,0.01,WeatherDisplay:10.37,2013-06-21 22:18:00,
2013-06-21 15:28:00,66.6,53.6,30.26,West,261,1.0,3.0,63,0.00,OVC,OVC,0.01,WeatherDisplay:10.37,2013-06-21 22:28:00,
2013-06-21 15:33:00,66.7,54.6,30.26,WSW,257,0.0,1.0,65,0.00,OVC,OVC,0.01,WeatherDisplay:10.37,2013-06-21 22:33:00,
2013-06-21 15:38:00,66.7,54.1,30.26,West,266,0.0,0.0,64,0.00,OVC,OVC,0.01,WeatherDisplay:10.37,2013-06-21 22:38:00,
2013-06-21 15:43:00,66.7,53.7,30.26,WSW,242,0.0,1.0,63,0.00,OVC,OVC,0.01,WeatherDisplay:10.37,2013-06-21 22:43:00,
2013-06-21 15:53:00,66.3,52.9,30.26,SW,232,0.0,3.0,62,0.00,OVC,OVC,0.01,WeatherDisplay:10.37,2013-06-21 22:53:00,
2013-06-21 15:58:00,66.2,54.1,30.26,SW,235,0.0,1.0,65,0.00,OVC,OVC,0.01,WeatherDisplay:10.37,2013-06-21 22:58:00,
2013-06-21 16:03:00,66.0,53.4,30.26,ESE,114,1.0,1.0,64,0.00,OVC,OVC,0.01,WeatherDisplay:10.37,2013-06-21 23:03:00,
2013-06-21 16:08:00,65.6,53.5,30.26,ESE,119,1.0,2.0,65,0.00,OVC,OVC,0.01,WeatherDisplay:10.37,2013-06-21 23:08:00,
2013-06-21 16:13:00,65.8,54.5,30.26,SE,127,0.0,1.0,67,0.00,OVC,OVC,0.01,WeatherDisplay:10.37,2013-06-21 23:13:00,
2013-06-21 16:18:00,66.0,56.7,30.26,ESE,118,0.0,2.0,72,0.00,OVC,OVC,0.01,WeatherDisplay:10.37,2013-06-21 23:18:00,
2013-06-21 16:23:00,65.6,53.5,30.26,East,98,1.0,3.0,65,0.00,OVC,OVC,0.01,WeatherDisplay:10.37,2013-06-21 23:23:00,
2013-06-21 16:28:00,65.7,52.8,30.26,SE,142,0.0,1.0,63,0.00,OVC,OVC,0.01,WeatherDisplay:10.37,2013-06-21 23:28:00,
2013-06-21 16:33:00,65.8,52.9,30.26,SW,218,1.0,2.0,63,0.00,OVC,OVC,0.01,WeatherDisplay:10.37,2013-06-21 23:33:00,
2013-06-21 16:38:00,65.7,52.8,30.25,WSW,248,1.0,2.0,63,0.00,OVC,OVC,0.01,WeatherDisplay:10.37,2013-06-21 23:38:00,
2013-06-21 16:43:00,65.8,52.0,30.25,WSW,246,1.0,3.0,61,0.00,OVC,OVC,0.01,WeatherDisplay:10.37,2013-06-21 23:43:00,
2013-06-21 16:48:00,66.0,53.0,30.25,WSW,256,0.0,1.0,63,0.00,OVC,OVC,0.01,WeatherDisplay:10.37,2013-06-21 23:48:00,
2013-06-21 16:53:00,66.5,53.5,30.25,SW,223,1.0,4.0,63,0.00,OVC,OVC,0.01,WeatherDisplay:10.37,2013-06-21 23:53:00,
2013-06-21 16:58:00,66.4,53.0,30.25,SW,235,2.0,4.0,62,0.00,OVC,OVC,0.01,WeatherDisplay:10.37,2013-06-21 23:58:00,
2013-06-21 17:03:00,66.5,53.6,30.25,WSW,255,1.0,4.0,63,0.00,OVC,OVC,0.01,WeatherDisplay:10.37,2013-06-22 00:03:00,
2013-06-21 17:08:00,66.8,53.4,30.25,West,268,0.0,1.0,62,0.00,OVC,OVC,0.01,WeatherDisplay:10.37,2013-06-22 00:08:00,
2013-06-21 17:13:00,67.2,53.7,30.25,West,259,1.0,3.0,62,0.00,OVC,OVC,0.01,WeatherDisplay:10.37,2013-06-22 00:13:00,
2013-06-21 17:23:00,66.6,54.9,30.25,WNW,291,0.0,1.0,66,0.00,OVC,OVC,0.01,WeatherDisplay:10.37,2013-06-22 00:23:00,
2013-06-21 17:28:00,66.9,53.8,30.25,West,275,0.0,0.0,63,0.00,OVC,OVC,0.01,WeatherDisplay:10.37,2013-06-22 00:28:00,
2013-06-21 17:33:00,67.2,53.3,30.25,WSW,250,0.0,2.0,61,0.00,OVC,OVC,0.01,WeatherDisplay:10.37,2013-06-22 00:33:00,
2013-06-21 17:38:00,67.0,53.5,30.24,WSW,248,0.0,2.0,62,0.00,OVC,OVC,0.01,WeatherDisplay:10.37,2013-06-22 00:38:00,
2013-06-21 17:43:00,67.0,54.9,30.24,West,263,0.0,3.0,65,0.00,OVC,OVC,0.01,WeatherDisplay:10.37,2013-06-22 00:43:00,
2013-06-21 17:53:00,67.3,54.7,30.24,WSW,237,0.0,2.0,64,0.00,OVC,OVC,0.01,WeatherDisplay:10.37,2013-06-22 00:53:00,
2013-06-21 17:58:00,67.4,55.3,30.24,South,177,1.0,2.0,65,0.00,OVC,OVC,0.01,WeatherDisplay:10.37,2013-06-22 00:58:00,
2013-06-21 18:03:00,67.6,55.4,30.24,SE,129,0.0,2.0,65,0.00,OVC,OVC,0.01,WeatherDisplay:10.37,2013-06-22 01:03:00,
2013-06-21 18:08:00,68.5,55.4,30.24,SE,127,0.0,2.0,63,0.00,OVC,OVC,0.01,WeatherDisplay:10.37,2013-06-22 01:08:00,
2013-06-21 18:13:00,69.1,55.6,30.24,ESE,110,0.0,1.0,62,0.00,OVC,OVC,0.01,WeatherDisplay:10.37,2013-06-22 01:13:00,
2013-06-21 18:18:00,69.6,54.6,30.24,ESE,122,1.0,4.0,59,0.00,OVC,OVC,0.01,WeatherDisplay:10.37,2013-06-22 01:18:00,
2013-06-21 18:23:00,69.4,54.9,30.24,SE,144,0.0,3.0,60,0.00,OVC,OVC,0.01,WeatherDisplay:10.37,2013-06-22 01:23:00,
2013-06-21 18:28:00,68.6,55.1,30.24,SE,130,0.0,2.0,62,0.00,OVC,OVC,0.01,WeatherDisplay:10.37,2013-06-22 01:28:00,
2013-06-21 18:33:00,68.4,55.3,30.24,ESE,116,1.0,3.0,63,0.00,OVC,OVC,0.01,WeatherDisplay:10.37,2013-06-22 01:33:00,
2013-06-21 18:38:00,67.9,53.5,30.24,ESE,123,0.0,3.0,60,0.00,OVC,OVC,0.01,WeatherDisplay:10.37,2013-06-22 01:38:00,
2013-06-21 18:43:00,68.2,54.3,30.24,SE,138,0.0,3.0,61,0.00,OVC,OVC,0.01,WeatherDisplay:10.37,2013-06-22 01:43:00,
2013-06-21 18:48:00,68.5,53.1,30.24,SE,132,1.0,3.0,58,0.00,OVC,OVC,0.01,WeatherDisplay:10.37,2013-06-22 01:48:00,
2013-06-21 18:53:00,68.9,54.4,30.24,SSE,148,0.0,1.0,60,0.00,OVC,OVC,0.01,WeatherDisplay:10.37,2013-06-22 01:53:00,
2013-06-21 18:58:00,69.5,54.6,30.24,SW,222,0.0,2.0,59,0.00,OVC,OVC,0.01,WeatherDisplay:10.37,2013-06-22 01:58:00,
2013-06-21 19:03:00,69.5,53.2,30.24,West,260,0.0,2.0,56,0.00,OVC,OVC,0.01,WeatherDisplay:10.37,2013-06-22 02:03:00,
2013-06-21 19:08:00,69.1,52.2,30.23,NNW,328,0.0,3.0,55,0.00,OVC,OVC,0.01,WeatherDisplay:10.37,2013-06-22 02:08:00,
2013-06-21 19:13:00,68.8,51.9,30.23,NE,54,1.0,1.0,55,0.00,OVC,OVC,0.01,WeatherDisplay:10.37,2013-06-22 02:13:00,
2013-06-21 19:18:00,68.7,52.8,30.23,East,83,0.0,2.0,57,0.00,OVC,OVC,0.01,WeatherDisplay:10.37,2013-06-22 02:18:00,
2013-06-21 19:23:00,69.0,53.1,30.23,SSW,207,0.0,2.0,57,0.00,OVC,OVC,0.01,WeatherDisplay:10.37,2013-06-22 02:23:00,
2013-06-21 19:28:00,68.4,53.0,30.23,West,271,1.0,2.0,58,0.00,OVC,OVC,0.01,WeatherDisplay:10.37,2013-06-22 02:28:00,
2013-06-21 19:33:00,67.5,52.7,30.23,NW,320,0.0,0.0,59,0.00,OVC,OVC,0.01,WeatherDisplay:10.37,2013-06-22 02:33:00,
2013-06-21 19:38:00,66.8,52.0,30.23,WNW,303,1.0,2.0,59,0.00,OVC,OVC,0.01,WeatherDisplay:10.37,2013-06-22 02:38:00,
2013-06-21 19:43:00,66.2,52.3,30.23,WSW,257,0.0,1.0,61,0.00,OVC,OVC,0.01,WeatherDisplay:10.37,2013-06-22 02:43:00,
2013-06-21 19:48:00,65.5,52.1,30.23,WSW,251,0.0,1.0,62,0.00,OVC,OVC,0.01,WeatherDisplay:10.37,2013-06-22 02:48:00,
2013-06-21 19:53:00,64.9,52.0,30.23,WSW,248,0.0,0.0,63,0.00,OVC,OVC,0.01,WeatherDisplay:10.37,2013-06-22 02:53:00,
2013-06-21 19:58:00,64.6,53.0,30.23,WSW,247,0.0,0.0,66,0.00,OVC,OVC,0.01,WeatherDisplay:10.37,2013-06-22 02:58:00,
2013-06-21 20:03:00,64.4,53.6,30.23,WSW,245,0.0,0.0,68,0.00,OVC,OVC,0.01,WeatherDisplay:10.37,2013-06-22 03:03:00,
2013-06-21 20:08:00,64.0,52.8,30.23,WSW,245,0.0,0.0,67,0.00,OVC,OVC,0.01,WeatherDisplay:10.37,2013-06-22 03:08:00,
2013-06-21 20:13:00,63.7,53.3,30.23,WSW,245,0.0,0.0,69,0.00,OVC,OVC,0.01,WeatherDisplay:10.37,2013-06-22 03:13:00,
2013-06-21 20:18:00,63.0,53.0,30.23,WSW,245,0.0,0.0,70,0.00,OVC,OVC,0.01,WeatherDisplay:10.37,2013-06-22 03:18:00,
2013-06-21 20:23:00,62.4,52.9,30.23,WSW,245,0.0,0.0,71,0.00,OVC,OVC,0.01,WeatherDisplay:10.37,2013-06-22 03:23:00,
2013-06-21 20:28:00,62.0,54.3,30.23,WSW,245,0.0,0.0,76,0.00,OVC,OVC,0.01,WeatherDisplay:10.37,2013-06-22 03:28:00,
2013-06-21 20:33:00,61.5,54.2,30.23,WSW,245,0.0,0.0,77,0.00,OVC,OVC,0.01,WeatherDisplay:10.37,2013-06-22 03:33:00,
2013-06-21 20:38:00,61.0,54.1,30.23,WSW,245,0.0,0.0,78,0.00,OVC,OVC,0.01,WeatherDisplay:10.37,2013-06-22 03:38:00,
2013-06-21 20:43:00,60.5,54.3,30.23,WSW,245,0.0,0.0,80,0.00,OVC,OVC,0.01,WeatherDisplay:10.37,2013-06-22 03:43:00,
2013-06-21 20:48:00,59.9,54.1,30.23,WSW,244,0.0,0.0,81,0.00,OVC,OVC,0.01,WeatherDisplay:10.37,2013-06-22 03:48:00,
2013-06-21 20:53:00,59.5,54.0,30.23,WSW,244,0.0,0.0,82,0.00,OVC,OVC,0.01,WeatherDisplay:10.37,2013-06-22 03:53:00,
2013-06-21 20:58:00,59.0,53.5,30.23,WSW,244,0.0,0.0,82,0.00,OVC,OVC,0.01,WeatherDisplay:10.37,2013-06-22 03:58:00,
2013-06-21 21:03:00,58.4,53.0,30.23,WSW,244,0.0,0.0,82,0.00,OVC,OVC,0.01,WeatherDisplay:10.37,2013-06-22 04:03:00,
2013-06-21 21:08:00,57.9,52.8,30.23,WSW,244,0.0,0.0,83,0.00,OVC,OVC,0.01,WeatherDisplay:10.37,2013-06-22 04:08:00,
2013-06-21 21:13:00,57.4,52.6,30.23,WSW,244,0.0,0.0,84,0.00,OVC,OVC,0.01,WeatherDisplay:10.37,2013-06-22 04:13:00,
2013-06-21 21:18:00,57.0,53.2,30.24,WSW,244,0.0,0.0,87,0.00,OVC,OVC,0.01,WeatherDisplay:10.37,2013-06-22 04:18:00,
2013-06-21 21:23:00,56.8,53.6,30.24,WSW,244,0.0,0.0,89,0.00,OVC,OVC,0.01,WeatherDisplay:10.37,2013-06-22 04:23:00,
2013-06-21 21:28:00,56.5,53.3,30.24,WSW,245,0.0,0.0,89,0.00,OVC,OVC,0.01,WeatherDisplay:10.37,2013-06-22 04:28:00,
2013-06-21 21:33:00,56.1,52.9,30.24,WSW,245,0.0,0.0,89,0.00,OVC,OVC,0.01,WeatherDisplay:10.37,2013-06-22 04:33:00,
2013-06-21 21:38:00,55.7,52.5,30.24,WSW,244,0.0,0.0,89,0.00,OVC,OVC,0.01,WeatherDisplay:10.37,2013-06-22 04:38:00,
2013-06-21 21:43:00,55.5,52.9,30.24,WSW,244,0.0,0.0,91,0.00,OVC,OVC,0.01,WeatherDisplay:10.37,2013-06-22 04:43:00,
2013-06-21 21:48:00,55.3,52.7,30.24,WSW,245,0.0,0.0,91,0.00,OVC,OVC,0.01,WeatherDisplay:10.37,2013-06-22 04:48:00,
2013-06-21 21:53:00,55.1,52.5,30.24,WSW,245,0.0,0.0,91,0.00,OVC,OVC,0.01,WeatherDisplay:10.37,2013-06-22 04:53:00,
2013-06-21 21:58:00,54.9,52.6,30.24,WSW,245,0.0,0.0,92,0.00,OVC,OVC,0.01,WeatherDisplay:10.37,2013-06-22 04:58:00,
2013-06-21 22:03:00,54.7,52.1,30.24,WSW,244,0.0,0.0,91,0.00,OVC,OVC,0.01,WeatherDisplay:10.37,2013-06-22 05:03:00,
2013-06-21 22:08:00,54.3,51.8,30.24,WSW,245,0.0,0.0,91,0.00,OVC,OVC,0.01,WeatherDisplay:10.37,2013-06-22 05:08:00,
2013-06-21 22:13:00,54.0,51.4,30.24,WSW,245,0.0,0.0,91,0.00,OVC,OVC,0.01,WeatherDisplay:10.37,2013-06-22 05:13:00,
2013-06-21 22:18:00,53.6,51.0,30.25,WSW,245,0.0,0.0,91,0.00,OVC,OVC,0.01,WeatherDisplay:10.37,2013-06-22 05:18:00,
2013-06-21 22:23:00,53.3,51.0,30.25,WSW,245,0.0,0.0,92,0.00,OVC,OVC,0.01,WeatherDisplay:10.37,2013-06-22 05:23:00,
2013-06-21 22:28:00,53.0,50.8,30.24,WSW,245,0.0,0.0,92,0.00,OVC,OVC,0.01,WeatherDisplay:10.37,2013-06-22 05:28:00,
2013-06-21 22:33:00,53.1,51.4,30.24,WSW,245,0.0,0.0,94,0.00,OVC,OVC,0.01,WeatherDisplay:10.37,2013-06-22 05:33:00,
2013-06-21 22:38:00,53.1,51.4,30.24,WSW,244,0.0,0.0,94,0.00,OVC,OVC,0.01,WeatherDisplay:10.37,2013-06-22 05:38:00,
2013-06-21 22:43:00,53.0,51.3,30.25,WSW,244,0.0,0.0,94,0.00,OVC,OVC,0.01,WeatherDisplay:10.37,2013-06-22 05:43:00,
2013-06-21 22:48:00,52.9,51.2,30.24,WSW,244,0.0,0.0,94,0.00,OVC,OVC,0.01,WeatherDisplay:10.37,2013-06-22 05:48:00,
2013-06-21 22:53:00,52.7,51.0,30.24,WSW,244,0.0,0.0,94,0.00,OVC,OVC,0.01,WeatherDisplay:10.37,2013-06-22 05:53:00,
2013-06-21 22:58:00,52.5,50.8,30.25,WSW,245,0.0,0.0,94,0.00,OVC,OVC,0.01,WeatherDisplay:10.37,2013-06-22 05:58:00,
2013-06-21 23:03:00,52.2,50.5,30.25,WSW,245,0.0,0.0,94,0.00,OVC,OVC,0.01,WeatherDisplay:10.37,2013-06-22 06:03:00,
2013-06-21 23:08:00,52.1,50.4,30.25,WSW,245,0.0,0.0,94,0.00,OVC,OVC,0.01,WeatherDisplay:10.37,2013-06-22 06:08:00,
2013-06-21 23:13:00,51.9,50.2,30.24,WSW,245,0.0,0.0,94,0.00,OVC,OVC,0.01,WeatherDisplay:10.37,2013-06-22 06:13:00,
2013-06-21 23:18:00,51.6,49.9,30.24,WSW,245,0.0,0.0,94,0.00,OVC,OVC,0.01,WeatherDisplay:10.37,2013-06-22 06:18:00,
2013-06-21 23:23:00,51.4,50.0,30.24,WSW,245,0.0,0.0,95,0.00,OVC,OVC,0.01,WeatherDisplay:10.37,2013-06-22 06:23:00,
2013-06-21 23:28:00,51.7,50.3,30.24,WSW,245,0.0,0.0,95,0.00,OVC,OVC,0.01,WeatherDisplay:10.37,2013-06-22 06:28:00,
2013-06-21 23:33:00,51.8,50.7,30.24,WSW,245,0.0,0.0,96,0.00,OVC,OVC,0.01,WeatherDisplay:10.37,2013-06-22 06:33:00,
2013-06-21 23:38:00,52.0,50.9,30.24,WSW,245,0.0,0.0,96,0.00,OVC,OVC,0.01,WeatherDisplay:10.37,2013-06-22 06:38:00,
2013-06-21 23:43:00,52.1,51.0,30.24,WSW,245,0.0,0.0,96,0.00,OVC,OVC,0.01,WeatherDisplay:10.37,2013-06-22 06:43:00,
2013-06-21 23:48:00,52.2,51.1,30.24,WSW,245,0.0,0.0,96,0.00,OVC,OVC,0.01,WeatherDisplay:10.37,2013-06-22 06:48:00,
2013-06-21 23:53:00,52.4,51.3,30.24,WSW,245,0.0,0.0,96,0.00,OVC,OVC,0.01,WeatherDisplay:10.37,2013-06-22 06:53:00,
2013-06-21 23:58:00,52.5,51.4,30.24,WSW,245,0.0,0.0,96,0.00,OVC,OVC,0.01,WeatherDisplay:10.37,2013-06-22 06:58:00,